AirNav   Duncan Aviation - Near you to keep you flying
 
 1205 users online  

NY83 Essex Boatworks Seaplane Base
Essex, New York, USA

GOING TO ESSEX?


FAA INFORMATION EFFECTIVE 16 JUNE 2022

Location

FAA Identifier: NY83
Lat/Long: 44-18-00.1840N 073-20-58.4590W
44-18.003067N 073-20.974317W
44.3000511,-73.3495719
(estimated)
Elevation: 95 ft. / 29 m (estimated)
Variation: 15W (1985)
Time zone: UTC -4 (UTC -5 during Standard Time)
Zip code: 12936

Seaplane Base Operations

Seaplane Base use: Private use. Permission required prior to landing
Activation date: 08/1961
Control tower: no
ARTCC: BOSTON CENTER
FSS: BURLINGTON FLIGHT SERVICE STATION
Attendance: MAY-OCT DAYLIGHT HOURS
Wind indicator: no
Segmented circle: no

Seaplane Base Communications

WX ASOS at BTV (13 nm NE): 123.8 (802-657-4490)

Seaplane Base Services

Fuel available: 100
Airframe service: MINOR
Powerplant service: MINOR

Runway Information

Runway ALL/WAY

Dimensions: 15000 x 4000 ft. / 4572 x 1219 m
LNDG AREA 50 MI BY 3 MI ALL DIRECTIONS PSBL.
Surface: water
RUNWAY ALL  RUNWAY WAY
Traffic pattern: leftleft

Seaplane Base Ownership and Management from official FAA records

Ownership: Privately-owned
Owner: TODD WILLIAM BURLEY
S MAIN ST
ESSEX, NY 12936
Manager: TODD BURLEY
S MAIN ST
ESSEX, NY 12936
Phone (802) 793-5304

Additional Remarks

FOR CD CTC BURLINGTON APCH AT 802-657-4401, WHEN APCH CLSD CTC BOSTON ARTCC AT 603-879-6859.

Instrument Procedures

There are no published instrument procedures at NY83.

Some nearby airports with instrument procedures:

KBTV - Burlington International Airport (13 nm NE)
KPBG - Plattsburgh International Airport (22 nm N)
4B6 - Ticonderoga Municipal Airport (26 nm S)
KLKP - Lake Placid Airport (26 nm W)
KMPV - Edward F Knapp State Airport (34 nm E)
 
Loc | Ops | Rwys | IFR | FBO | Links
Com | Nav | Svcs | Stats | Notes
Area around NY83 (Essex Boatworks Seaplane Base)
 
Road maps at: MapQuest Bing Google
 
Aerial photo
No photo
 
Sectional chart

 
Airport distance calculator
Flying to Essex Boatworks Seaplane Base? Find the distance to fly.

From to NY83

Sunrise and sunset
Times for 29-Jun-2022
 Local
(UTC-4)
 Zulu
(UTC)
Morning civil twilight04:3708:37
Sunrise05:1309:13
Sunset20:4000:40
Evening civil twilight21:1701:17

Current date and time
Zulu (UTC)  30-Jun-2022 02:47:40
Local (UTC-4)  29-Jun-2022 22:47:40
 
METAR
KBTV 
13nm NE 
300154Z 00000KT 10SM SCT075 18/16 A3016 RMK AO2 SLP210 T01780156
KPBG 
22nm N 
300153Z AUTO VRB03KT 10SM FEW100 17/14 A3015 RMK AO2 SLP208 T01670139
K6B0 
22nm SE 
300235Z AUTO 00000KT 10SM CLR 14/14 A3018 RMK AO2 T01370135
TAF
KBTV 
13nm NE 
291728Z 2918/3018 21009G18KT P6SM SCT050 BKN120 FM292100 21009G18KT P6SM VCSH BKN090 TEMPO 2921/2923 VRB15G25KT 4SM SHRA BR OVC035 FM300100 VRB04KT P6SM OVC070 FM300800 31003KT P6SM BKN029
NOTAMs
Click for the latest NOTAMs
NOTAMs are issued by the DoD/FAA and will open in a separate window not controlled by AirNav.

 

 
 

Would you like to see your business listed on this page?

 If your business provides an interesting product or service to pilots, flight crews, aircraft, or users of the Essex Boatworks Seaplane Base, you should consider listing it here.  To start the listing process, click on the button below
 
Add a business
 

Other Pages about Essex Boatworks Seaplane Base

Update a link
 
Copyright © AirNav, LLC. All rights reserved. Privacy Policy  Contact